Home   Weather   Fevik   Past weeks

Flag for Norway Past Weather in Fevik, Norway — Yesterday and Last 2 Weeks

Now
59 °F

Cool.


Feels Like: 57 °F
Forecast: 57 / 64 °F
Wind: 12 mph from Southwest

Location: Torungen Fyr

Current Time: Aug 19, 2017 at 5:12:46 pm

Latest Report: Aug 19, 2017 at 4:00 pm


Visibility: N/A

Pressure: 29.67 "Hg

Humidity: 90%

Dew Point: 56 °F

Location of FevikLocation

Past Weather in Fevik — Graph

°F

Fevik Temperature Yesterday

Maximum temperature yesterday: 64 °F (at 6:00 pm)
Minimum temperature yesterday: 59 °F (at 3:00 am)
Average temperature yesterday: 61 °F

High & Low Weather Summary for the Past Weeks

 TemperatureHumidityPressure
High69 °F (Aug 10, 8:00 pm)98% (Aug 9, 3:00 pm)30.20 "Hg (Aug 9, 3:00 pm)
Low52 °F (Aug 14, 6:00 am)35% (Aug 13, 4:00 pm)29.38 "Hg (Aug 4, 4:00 pm)
Average61 °F81%29.87 "Hg
* Reported Aug 4 3:00 pm — Aug 19 3:00 pm, Fevik. Weather by CustomWeather, © 2017

Note: Actual official high and low records may vary slightly from our data, if they occured in-between our weather recording intervals... More about our weather records

Advertising

Fevik Weather History for the Previous 24 Hours

Scroll right to see more
 ConditionsComfort  
Time TempWeatherWind HumidityBarometerVisibility
3:00 pm
Sat, Aug 19
60 °FCool.10 mph83%29.66 "HgN/A
2:00 pm58 °FCool.8 mph87%29.65 "HgN/A
1:00 pm60 °FCool.12 mph82%29.64 "HgN/A
12:00 pm62 °FCool.13 mph69%29.63 "HgN/A
11:00 am60 °FCool.8 mph79%29.64 "HgN/A
10:00 am59 °FCool.6 mph84%29.64 "HgN/A
9:00 am58 °FCool.6 mph84%29.63 "HgN/A
8:00 am57 °FCool.6 mph91%29.63 "HgN/A
7:00 am55 °FCool.3 mph92%29.62 "HgN/A
6:00 am55 °FCool.3 mph92%29.63 "HgN/A
5:00 am56 °FCool.3 mph92%29.64 "HgN/A
4:00 am57 °FCool.3 mph93%29.64 "HgN/A
3:00 am59 °FCool.3 mph93%29.64 "HgN/A
2:00 am59 °FCool.5 mph92%29.66 "HgN/A
1:00 am61 °FCool.2 mph90%29.67 "HgN/A
12:00 am61 °FCool.2 mph89%29.67 "HgN/A
11:00 pm
Fri, Aug 18
62 °FCool.5 mph84%29.68 "HgN/A
10:00 pm63 °FMild.6 mph91%29.68 "HgN/A
9:00 pm63 °FMild.7 mph92%29.69 "HgN/A
8:00 pm64 °FMild.7 mph92%29.70 "HgN/A
7:00 pm64 °FMild.6 mph92%29.70 "HgN/A
6:00 pm64 °FMild.5 mph90%29.70 "HgN/A
5:00 pm64 °FMild.3 mph89%29.71 "HgN/A
Weather by CustomWeather, © 2017

See weather overviewHow to use our weather pages